Location: Trebic
(49.2170°N, 15.8830°E)
Time: 00:37:28
(UTC+02:00)

Courier 1B Rocket - Pass Details

Date: 24 August 2019
Orbit: 920 x 1202 km, 28.2° (Epoch: 17 September)

Event Time Altitude Azimuth Distance (km) Brightness Sun altitude
Rises 06:12:15 0° 237° (WSW) 3,997 7.6 1.0°
Reaches altitude 10° 06:16:43 10° 214° (SW) 3,081 7.2 1.7°
Maximum altitude 06:20:14 14° 186° (S) 2,826 7.2 2.2°
Drops below altitude 10° 06:23:47 10° 159° (SSE) 3,121 7.8 2.8°
Sets 06:28:23 0° 135° (SE) 4,090 8.7 3.5°
